SWA1772 KSMF-KSAN

Flight info

Callsign SWA1772
Flight time 1h 13m
Altitude 39000
Route FTHIL3 FRA EHF HUULK COMIX2
Aircraft B38M/M-SDE1FGHILORVWXY/HB1

Departure

Time 2026-05-09 02:31
Airport Sacramento International Airport (KSMF)

Arrival

Time 2026-05-09 03:44
Airport San Diego International Airport (KSAN)
Time Latitude Longitude Altitude Speed Heading
2026-05-09 02:10 38.69632 -121.59409 36 ft 0 kts 179°
2026-05-09 02:22 38.69642 -121.59409 35 ft 4 kts 180°
2026-05-09 02:22 38.69668 -121.59406 35 ft 4 kts 196°
2026-05-09 02:23 38.69691 -121.59391 36 ft 4 kts 231°
2026-05-09 02:23 38.69698 -121.59366 36 ft 1 kts 271°
2026-05-09 02:23 38.69698 -121.59360 36 ft 0 kts 271°
2026-05-09 02:27 38.69699 -121.59397 36 ft 12 kts 271°
2026-05-09 02:27 38.69700 -121.59558 36 ft 23 kts 270°
2026-05-09 02:28 38.69706 -121.59784 34 ft 27 kts 280°
2026-05-09 02:28 38.69809 -121.59863 35 ft 18 kts
2026-05-09 02:28 38.69942 -121.59859 34 ft 20 kts
2026-05-09 02:28 38.70081 -121.59860 36 ft 21 kts 359°
2026-05-09 02:29 38.70234 -121.59856 36 ft 23 kts
2026-05-09 02:29 38.70397 -121.59852 37 ft 24 kts
2026-05-09 02:29 38.70570 -121.59851 36 ft 26 kts
2026-05-09 02:29 38.70716 -121.59889 36 ft 13 kts 288°
2026-05-09 02:30 38.70718 -121.59995 35 ft 12 kts 269°
2026-05-09 02:30 38.70693 -121.60099 35 ft 13 kts 213°
2026-05-09 02:30 38.70581 -121.60112 35 ft 28 kts 181°
2026-05-09 02:30 38.70141 -121.60121 40 ft 97 kts 181°
2026-05-09 02:31 38.69267 -121.60141 47 ft 150 kts 182°
2026-05-09 02:31 38.68177 -121.60168 556 ft 159 kts 180°
2026-05-09 02:31 38.67062 -121.60083 1220 ft 153 kts 163°
2026-05-09 02:31 38.66078 -121.59479 1755 ft 167 kts 144°
2026-05-09 02:32 38.65262 -121.58315 2037 ft 189 kts 120°
2026-05-09 02:32 38.64544 -121.56778 2420 ft 211 kts 120°
2026-05-09 02:32 38.63739 -121.55112 2876 ft 230 kts 121°
2026-05-09 02:32 38.62849 -121.53304 3358 ft 251 kts 121°
2026-05-09 02:33 38.61873 -121.51354 3841 ft 270 kts 122°
2026-05-09 02:33 38.60832 -121.49292 4563 ft 276 kts 121°
2026-05-09 02:33 38.59791 -121.47226 5440 ft 278 kts 122°
2026-05-09 02:33 38.58738 -121.45141 6281 ft 280 kts 122°
2026-05-09 02:34 38.57677 -121.43040 7056 ft 283 kts 122°
2026-05-09 02:34 38.56602 -121.40910 7783 ft 287 kts 123°
2026-05-09 02:34 38.55512 -121.38754 8512 ft 291 kts 123°
2026-05-09 02:34 38.54405 -121.36566 9245 ft 295 kts 123°
2026-05-09 02:35 38.53663 -121.35099 9755 ft 298 kts 123°
2026-05-09 02:35 38.53463 -121.34704 9885 ft 298 kts 123°
2026-05-09 02:36 38.52267 -121.32341 10445 ft 311 kts 123°
2026-05-09 02:36 38.51456 -121.30750 10668 ft 322 kts 123°
2026-05-09 02:36 38.49796 -121.27491 11330 ft 336 kts 123°
2026-05-09 02:36 38.48519 -121.24978 12087 ft 339 kts 123°
2026-05-09 02:37 38.47230 -121.22441 12790 ft 343 kts 123°
2026-05-09 02:37 38.45922 -121.19867 13560 ft 347 kts 123°
2026-05-09 02:37 38.44600 -121.17266 14259 ft 352 kts 123°
2026-05-09 02:37 38.43259 -121.14633 14931 ft 356 kts 124°
2026-05-09 02:38 38.41901 -121.11968 15607 ft 361 kts 124°
2026-05-09 02:38 38.40976 -121.10152 16044 ft 364 kts 124°
2026-05-09 02:38 38.39588 -121.07433 16744 ft 368 kts 124°
2026-05-09 02:38 38.38181 -121.04678 17395 ft 373 kts 124°
2026-05-09 02:39 38.36777 -121.01929 18027 ft 377 kts 124°
2026-05-09 02:39 38.35336 -120.99111 18611 ft 382 kts 124°
2026-05-09 02:39 38.33879 -120.96265 19171 ft 386 kts 125°
2026-05-09 02:39 38.32406 -120.93388 19722 ft 390 kts 125°
2026-05-09 02:40 38.30913 -120.90479 20259 ft 394 kts 125°
2026-05-09 02:40 38.29410 -120.87550 20788 ft 397 kts 125°
2026-05-09 02:40 38.27929 -120.84667 21302 ft 401 kts 125°
2026-05-09 02:40 38.26430 -120.81751 21810 ft 405 kts 125°
2026-05-09 02:41 38.24881 -120.78742 22316 ft 409 kts 125°
2026-05-09 02:41 38.23316 -120.75704 22831 ft 412 kts 125°
2026-05-09 02:41 38.21736 -120.72641 23326 ft 416 kts 125°
2026-05-09 02:41 38.20143 -120.69554 23780 ft 419 kts 125°
2026-05-09 02:42 38.18536 -120.66442 24181 ft 423 kts 125°
2026-05-09 02:42 38.16911 -120.63300 24570 ft 427 kts 125°
2026-05-09 02:42 38.15274 -120.60136 24967 ft 430 kts 125°
2026-05-09 02:42 38.13622 -120.56949 25349 ft 434 kts 125°
2026-05-09 02:43 38.11955 -120.53733 25718 ft 438 kts 125°
2026-05-09 02:43 38.10272 -120.50492 26102 ft 441 kts 125°
2026-05-09 02:43 38.08578 -120.47233 26469 ft 444 kts 125°
2026-05-09 02:43 38.06718 -120.44096 26807 ft 445 kts 137°
2026-05-09 02:44 38.04295 -120.41715 27179 ft 440 kts 155°
2026-05-09 02:44 38.01533 -120.40046 27447 ft 442 kts 160°
2026-05-09 02:44 37.98711 -120.38460 27778 ft 445 kts 161°
2026-05-09 02:44 37.95861 -120.36898 28145 ft 448 kts 161°
2026-05-09 02:45 37.92985 -120.35348 28466 ft 451 kts 161°
2026-05-09 02:45 37.90087 -120.33801 28803 ft 454 kts 161°
2026-05-09 02:45 37.87164 -120.32246 29148 ft 456 kts 161°
2026-05-09 02:45 37.84231 -120.30689 29491 ft 460 kts 161°
2026-05-09 02:46 37.81268 -120.29117 29813 ft 463 kts 161°
2026-05-09 02:46 37.78292 -120.27540 30139 ft 465 kts 161°
2026-05-09 02:46 37.75299 -120.25956 30408 ft 468 kts 161°
2026-05-09 02:46 37.72295 -120.24367 30702 ft 469 kts 161°
2026-05-09 02:47 37.69274 -120.22770 31001 ft 472 kts 161°
2026-05-09 02:47 37.66237 -120.21167 31283 ft 474 kts 161°
2026-05-09 02:47 37.63191 -120.19560 31564 ft 476 kts 161°
2026-05-09 02:47 37.60168 -120.17967 31849 ft 478 kts 161°
2026-05-09 02:48 37.57095 -120.16349 32131 ft 480 kts 161°
2026-05-09 02:48 37.54008 -120.14724 32417 ft 482 kts 161°
2026-05-09 02:48 37.50909 -120.13096 32685 ft 484 kts 161°
2026-05-09 02:48 37.47796 -120.11461 32959 ft 486 kts 161°
2026-05-09 02:49 37.44674 -120.09823 33226 ft 488 kts 161°
2026-05-09 02:49 37.41534 -120.08177 33499 ft 489 kts 161°
2026-05-09 02:49 37.38390 -120.06531 33803 ft 490 kts 161°
2026-05-09 02:49 37.35240 -120.04883 34136 ft 490 kts 160°
2026-05-09 02:50 37.32099 -120.03241 34447 ft 489 kts 160°
2026-05-09 02:50 37.28957 -120.01599 34757 ft 488 kts 160°
2026-05-09 02:50 37.25827 -119.99966 35059 ft 487 kts 160°
2026-05-09 02:50 37.22700 -119.98336 35361 ft 486 kts 160°
2026-05-09 02:51 37.19580 -119.96711 35657 ft 485 kts 160°
2026-05-09 02:51 37.16463 -119.95089 35934 ft 484 kts 160°
2026-05-09 02:51 37.13357 -119.93474 36201 ft 484 kts 160°
2026-05-09 02:51 37.10295 -119.91883 36460 ft 483 kts 160°
2026-05-09 02:52 37.07195 -119.90274 36716 ft 482 kts 160°
2026-05-09 02:52 37.04098 -119.88668 36970 ft 481 kts 160°
2026-05-09 02:52 37.01011 -119.87069 37207 ft 480 kts 160°
2026-05-09 02:52 36.97927 -119.85472 37438 ft 480 kts 160°
2026-05-09 02:53 36.94844 -119.83878 37656 ft 479 kts 160°
2026-05-09 02:53 36.91764 -119.82286 37867 ft 478 kts 160°
2026-05-09 02:53 36.88689 -119.80699 38081 ft 477 kts 160°
2026-05-09 02:53 36.85625 -119.79118 38285 ft 477 kts 160°
2026-05-09 02:54 36.82562 -119.77540 38483 ft 476 kts 160°
2026-05-09 02:54 36.79503 -119.75964 38659 ft 475 kts 160°
2026-05-09 02:54 36.76448 -119.74393 38817 ft 474 kts 160°
2026-05-09 02:54 36.73397 -119.72825 38950 ft 474 kts 160°
2026-05-09 02:55 36.70350 -119.71259 38980 ft 474 kts 159°
2026-05-09 02:55 36.64265 -119.68139 38973 ft 472 kts 159°
2026-05-09 02:56 36.58191 -119.65028 38972 ft 472 kts 159°
2026-05-09 02:56 36.52118 -119.61924 38971 ft 472 kts 159°
2026-05-09 02:57 36.46047 -119.58825 38971 ft 471 kts 159°
2026-05-09 02:57 36.39981 -119.55735 38969 ft 471 kts 159°
2026-05-09 02:58 36.33911 -119.52648 38970 ft 471 kts 159°
2026-05-09 02:58 36.27844 -119.49568 38960 ft 471 kts 159°
2026-05-09 02:59 36.21775 -119.46491 38965 ft 471 kts 159°
2026-05-09 02:59 36.15705 -119.43420 38960 ft 471 kts 159°
2026-05-09 03:00 36.09633 -119.40352 38961 ft 472 kts 159°
2026-05-09 03:00 36.03554 -119.37287 38963 ft 472 kts 159°
2026-05-09 03:01 35.97469 -119.34223 38962 ft 472 kts 159°
2026-05-09 03:01 35.91385 -119.31165 38964 ft 473 kts 159°
2026-05-09 03:02 35.85335 -119.28129 38979 ft 472 kts 159°
2026-05-09 03:02 35.79207 -119.25058 38967 ft 472 kts 159°
2026-05-09 03:03 35.73164 -119.22036 38971 ft 472 kts 159°
2026-05-09 03:03 35.67083 -119.18999 38969 ft 472 kts 159°
2026-05-09 03:04 35.61000 -119.15965 38966 ft 472 kts 158°
2026-05-09 03:04 35.54921 -119.12939 38964 ft 471 kts 158°
2026-05-09 03:05 35.48852 -119.09891 38967 ft 471 kts 155°
2026-05-09 03:05 35.42901 -119.06528 38971 ft 471 kts 155°
2026-05-09 03:06 35.36940 -119.03202 38973 ft 471 kts 155°
2026-05-09 03:06 35.31259 -119.00043 38971 ft 470 kts 155°
2026-05-09 03:07 35.25550 -118.96871 38969 ft 470 kts 155°
2026-05-09 03:07 35.19599 -118.93571 38972 ft 470 kts 155°
2026-05-09 03:08 35.13647 -118.90276 38984 ft 469 kts 155°
2026-05-09 03:08 35.07702 -118.86990 38995 ft 469 kts 155°
2026-05-09 03:09 35.01758 -118.83710 39009 ft 469 kts 155°
2026-05-09 03:09 34.95809 -118.80433 39017 ft 469 kts 155°
2026-05-09 03:10 34.89908 -118.77187 39008 ft 469 kts 155°
2026-05-09 03:10 34.83963 -118.73921 39013 ft 469 kts 155°
2026-05-09 03:11 34.78015 -118.70660 39025 ft 469 kts 155°
2026-05-09 03:11 34.72064 -118.67402 39014 ft 469 kts 155°
2026-05-09 03:12 34.66114 -118.64149 39015 ft 469 kts 155°
2026-05-09 03:12 34.60161 -118.60896 38983 ft 468 kts 153°
2026-05-09 03:13 34.51784 -118.55093 38975 ft 468 kts 148°
2026-05-09 03:13 34.46168 -118.51091 38994 ft 468 kts 148°
2026-05-09 03:14 34.40562 -118.47100 39002 ft 467 kts 148°
2026-05-09 03:14 34.35125 -118.43235 39011 ft 467 kts 148°
2026-05-09 03:15 34.33171 -118.41849 38993 ft 467 kts 148°
2026-05-09 03:15 34.27586 -118.37887 38393 ft 463 kts 148°
2026-05-09 03:16 34.25821 -118.36637 37994 ft 462 kts 148°
2026-05-09 03:16 34.23200 -118.34781 37442 ft 460 kts 148°
2026-05-09 03:16 34.20454 -118.32837 36928 ft 456 kts 148°
2026-05-09 03:16 34.17724 -118.30907 36406 ft 454 kts 148°
2026-05-09 03:17 34.14969 -118.28960 35877 ft 452 kts 148°
2026-05-09 03:17 34.12266 -118.27052 35345 ft 450 kts 148°
2026-05-09 03:17 34.09658 -118.25212 34824 ft 449 kts 148°
2026-05-09 03:17 34.06964 -118.23312 34306 ft 448 kts 148°
2026-05-09 03:18 34.04275 -118.21419 33754 ft 447 kts 148°
2026-05-09 03:18 34.01588 -118.19527 33197 ft 446 kts 148°
2026-05-09 03:18 33.98910 -118.17643 32679 ft 444 kts 148°
2026-05-09 03:18 33.96295 -118.15806 32185 ft 441 kts 148°
2026-05-09 03:19 33.93646 -118.13945 31704 ft 439 kts 148°
2026-05-09 03:19 33.91873 -118.12701 31371 ft 437 kts 148°
2026-05-09 03:19 33.88468 -118.10312 30744 ft 435 kts 148°
2026-05-09 03:19 33.85871 -118.08491 30264 ft 430 kts 148°
2026-05-09 03:20 33.83273 -118.06747 29650 ft 426 kts 150°
2026-05-09 03:20 33.80686 -118.05040 29142 ft 419 kts 150°
2026-05-09 03:20 33.78165 -118.03370 28753 ft 411 kts 150°
2026-05-09 03:20 33.75682 -118.01724 28326 ft 403 kts 150°
2026-05-09 03:21 33.73249 -118.00110 27891 ft 397 kts 150°
2026-05-09 03:21 33.70852 -117.98522 27484 ft 390 kts 150°
2026-05-09 03:21 33.68494 -117.96960 27129 ft 384 kts 150°
2026-05-09 03:21 33.66171 -117.95423 26723 ft 379 kts 151°
2026-05-09 03:22 33.63877 -117.93906 26331 ft 373 kts 151°
2026-05-09 03:22 33.61619 -117.92413 25942 ft 368 kts 151°
2026-05-09 03:22 33.59396 -117.90945 25563 ft 363 kts 151°
2026-05-09 03:22 33.57209 -117.89501 25183 ft 358 kts 151°
2026-05-09 03:23 33.55130 -117.88123 24828 ft 354 kts 150°
2026-05-09 03:23 33.53056 -117.86711 24433 ft 359 kts 150°
2026-05-09 03:23 33.50874 -117.85225 24067 ft 362 kts 150°
2026-05-09 03:23 33.48681 -117.83736 23701 ft 361 kts 150°
2026-05-09 03:24 33.46500 -117.82256 23279 ft 360 kts 150°
2026-05-09 03:24 33.44344 -117.80763 22849 ft 357 kts 146°
2026-05-09 03:24 33.42449 -117.78861 22428 ft 355 kts 138°
2026-05-09 03:24 33.40620 -117.76891 22082 ft 352 kts 138°
2026-05-09 03:25 33.38805 -117.74950 21728 ft 349 kts 138°
2026-05-09 03:25 33.37020 -117.73042 21373 ft 347 kts 138°
2026-05-09 03:25 33.35225 -117.71125 21016 ft 345 kts 138°
2026-05-09 03:25 33.33439 -117.69218 20659 ft 343 kts 138°
2026-05-09 03:26 33.31664 -117.67325 20308 ft 341 kts 138°
2026-05-09 03:26 33.29899 -117.65443 19959 ft 340 kts 138°
2026-05-09 03:26 33.28707 -117.64172 19723 ft 339 kts 138°
2026-05-09 03:26 33.26955 -117.62305 19372 ft 337 kts 138°
2026-05-09 03:27 33.25202 -117.60442 18940 ft 338 kts 138°
2026-05-09 03:27 33.23409 -117.58552 18265 ft 349 kts 138°
2026-05-09 03:27 33.21595 -117.56641 17625 ft 355 kts 138°
2026-05-09 03:27 33.19734 -117.54682 16979 ft 360 kts 138°
2026-05-09 03:28 33.17834 -117.52681 16311 ft 367 kts 138°
2026-05-09 03:28 33.15904 -117.50650 15637 ft 373 kts 138°
2026-05-09 03:28 33.13942 -117.48599 14986 ft 377 kts 140°
2026-05-09 03:28 33.11812 -117.46791 14580 ft 375 kts 145°
2026-05-09 03:29 33.09677 -117.45018 14173 ft 372 kts 144°
2026-05-09 03:29 33.07569 -117.43248 13760 ft 370 kts 144°
2026-05-09 03:29 33.05478 -117.41481 13284 ft 368 kts 144°
2026-05-09 03:29 33.04083 -117.40311 12956 ft 367 kts 144°
2026-05-09 03:30 33.02235 -117.38765 12593 ft 351 kts 144°
2026-05-09 03:30 33.00286 -117.37133 12205 ft 333 kts 144°
2026-05-09 03:30 32.98434 -117.35581 11823 ft 318 kts 144°
2026-05-09 03:30 32.96664 -117.34099 11457 ft 305 kts 144°
2026-05-09 03:31 32.94958 -117.32671 11112 ft 294 kts 145°
2026-05-09 03:31 32.93459 -117.31416 10795 ft 284 kts 145°
2026-05-09 03:31 32.92549 -117.30654 10608 ft 278 kts 145°
2026-05-09 03:31 32.92042 -117.30232 10498 ft 275 kts 145°
2026-05-09 03:32 32.90760 -117.29165 10207 ft 269 kts 145°
2026-05-09 03:32 32.89245 -117.27905 9879 ft 261 kts 145°
2026-05-09 03:32 32.87781 -117.26687 9545 ft 253 kts 145°
2026-05-09 03:32 32.86362 -117.25508 9237 ft 245 kts 146°
2026-05-09 03:33 32.84990 -117.24367 8947 ft 236 kts 146°
2026-05-09 03:33 32.83667 -117.23268 8661 ft 229 kts 146°
2026-05-09 03:33 32.82385 -117.22184 8406 ft 224 kts 141°
2026-05-09 03:33 32.81457 -117.20734 8100 ft 220 kts 114°
2026-05-09 03:34 32.80936 -117.19061 7854 ft 211 kts 109°
2026-05-09 03:34 32.80711 -117.18262 7735 ft 208 kts 108°
2026-05-09 03:34 32.80284 -117.16649 7488 ft 202 kts 107°
2026-05-09 03:35 32.79966 -117.15378 7315 ft 198 kts 106°
2026-05-09 03:36 32.79592 -117.13831 7089 ft 193 kts 106°
2026-05-09 03:36 32.79232 -117.12301 6862 ft 192 kts 105°
2026-05-09 03:36 32.78883 -117.10795 6650 ft 191 kts 105°
2026-05-09 03:36 32.78534 -117.09271 6584 ft 191 kts 105°
2026-05-09 03:37 32.78187 -117.07743 6580 ft 192 kts 105°
2026-05-09 03:37 32.77798 -117.06224 6572 ft 192 kts 113°
2026-05-09 03:37 32.77240 -117.04784 6524 ft 192 kts 116°
2026-05-09 03:37 32.76674 -117.03345 6218 ft 193 kts 115°
2026-05-09 03:38 32.76100 -117.01865 5517 ft 202 kts 115°
2026-05-09 03:38 32.75523 -117.00361 4988 ft 199 kts 114°
2026-05-09 03:38 32.74944 -116.98953 4789 ft 177 kts 126°
2026-05-09 03:38 32.74048 -116.98002 4430 ft 175 kts 153°
2026-05-09 03:39 32.72899 -116.97526 4106 ft 175 kts 174°
2026-05-09 03:39 32.71718 -116.97571 3769 ft 167 kts 195°
2026-05-09 03:39 32.70671 -116.98091 3430 ft 161 kts 216°
2026-05-09 03:39 32.69876 -116.98986 3150 ft 156 kts 237°
2026-05-09 03:40 32.69395 -117.00130 2947 ft 155 kts 252°
2026-05-09 03:40 32.69071 -117.01352 2815 ft 156 kts 256°
2026-05-09 03:40 32.68793 -117.02592 2722 ft 155 kts 260°
2026-05-09 03:40 32.68887 -117.03842 2570 ft 153 kts 291°
2026-05-09 03:41 32.69413 -117.04940 2468 ft 154 kts 306°
2026-05-09 03:41 32.70069 -117.05944 2332 ft 154 kts 310°
2026-05-09 03:41 32.70577 -117.07048 2152 ft 154 kts 285°
2026-05-09 03:41 32.70816 -117.08289 2050 ft 155 kts 284°
2026-05-09 03:42 32.71082 -117.09528 1802 ft 155 kts 286°
2026-05-09 03:42 32.71372 -117.10752 1494 ft 154 kts 286°
2026-05-09 03:42 32.71665 -117.11967 1225 ft 152 kts 286°
2026-05-09 03:42 32.71955 -117.13164 987 ft 150 kts 286°
2026-05-09 03:43 32.72184 -117.14116 795 ft 147 kts 286°
2026-05-09 03:43 32.72466 -117.15272 545 ft 143 kts 287°
2026-05-09 03:43 32.72656 -117.16034 392 ft 140 kts 287°
2026-05-09 03:43 32.72919 -117.17137 209 ft 138 kts 284°
2026-05-09 03:44 32.73180 -117.18234 28 ft 135 kts 287°
2026-05-09 03:44 32.73381 -117.19064 26 ft 77 kts 285°
2026-05-09 03:44 32.73437 -117.19454 26 ft 31 kts 250°
2026-05-09 03:44 32.73369 -117.19515 27 ft 11 kts 167°
2026-05-09 03:45 32.73304 -117.19450 25 ft 14 kts 143°
2026-05-09 03:45 32.73267 -117.19436 25 ft 0 kts 209°
2026-05-09 03:45 32.73251 -117.19454 24 ft 9 kts 223°
2026-05-09 03:45 32.73218 -117.19517 25 ft 8 kts 270°
2026-05-09 03:46 32.73234 -117.19539 26 ft 6 kts 340°
2026-05-09 03:46 32.73258 -117.19548 25 ft 2 kts 325°
2026-05-09 03:46 32.73256 -117.19547 25 ft 3 kts 310°